Location: Brachstadt
(48.6975°N, 10.6755°E)
Time: 09:32:38
(UTC+00:00)

CZ-2C R/B - Pass Details

Date: 18 September 2020
Orbit: 785 x 870 km, 98.2° (Epoch: 27 October)

Event Time Altitude Azimuth Distance (km) Brightness Sun altitude
Rises 19:16:01 0° 13° (NNE) 3,409 6.0 -18.8°
Reaches altitude 10° 19:18:22 10° 13° (NNE) 2,481 5.3 -19.2°
Maximum altitude 19:23:54 85° 286° (WNW) 869 2.7 -20.0°
Drops below altitude 10° 19:29:30 10° 199° (SSW) 2,503 5.1 -20.8°
Sets 19:31:53 0° 198° (SSW) 3,441 5.8 -21.2°
